owner,sensor,date,latitude,longitude,vertical_datum,direction_of_sea_water_velocity,sea_water_speed,upward_sea_water_velocity,qcFlag 
TABS,ioos:station:wmo:42051:1,2003-05-01T00:00:00Z,29.6350,-93.6417,2.0,349.9822994,10.00250469,-99999.0,'11111222,11111222,99999999' 
TABS,ioos:station:wmo:42051:1,2003-05-01T00:30:00Z,29.6350,-93.6417,2.0,6.001023504,11.00027727,-99999.0,'11111222,11111222,99999999' 
TABS,ioos:station:wmo:42051:1,2003-05-01T01:00:00Z,29.6350,-93.6417,2.0,38.00792523,13.99876066,-99999.0,'11111222,11111222,99999999' 
TABS,ioos:station:wmo:42051:1,2003-05-01T17:30:00Z,29.6350,-93.6417,2.0,168.276097,15.2072417,-99999.0,'11111222,11111222,99999999' 
TABS,ioos:station:wmo:42051:1,2003-05-01T18:00:00Z,29.6350,-93.6417,2.0,157.903899,12.28205195,-99999.0,'11111222,11111222,99999999' 
TABS,ioos:station:wmo:42051:1,2003-05-01T18:30:00Z,29.6350,-93.6417,2.0,183.3462694,10.10723503,-99999.0,'11111222,11111222,99999999' 
TABS,ioos:station:wmo:42051:1,2003-05-01T19:00:00Z,29.6350,-93.6417,2.0,178.902773,9.401723246,-99999.0,'11133222,11111222,99999999' 
TABS,ioos:station:wmo:42051:1,2003-05-01T19:30:00Z,29.6350,-93.6417,2.0,130.6085946,8.403886006,-99999.0,'11133222,11111222,99999999' 
TABS,ioos:station:wmo:42051:1,2003-05-01T20:00:00Z,29.6350,-93.6417,2.0,53.27867751,5.402018141,-99999.0,'11133222,11111222,99999999' 
TABS,ioos:station:wmo:42051:1,2003-05-01T20:30:00Z,29.6350,-93.6417,2.0,86.91832978,8.742642621,-99999.0,'11133222,11111222,99999999' 
TABS,ioos:station:wmo:42051:1,2003-05-01T21:00:00Z,29.6350,-93.6417,2.0,90.40634528,2.820070921,-99999.0,'11133222,11111222,99999999' 
TABS,ioos:station:wmo:42051:1,2003-05-01T21:30:00Z,29.6350,-93.6417,2.0,115.8366938,9.499584201,-99999.0,'11133222,11111222,99999999' 
TABS,ioos:station:wmo:42051:1,2003-05-01T22:00:00Z,29.6350,-93.6417,2.0,164.5495586,12.8752864,-99999.0,'11111222,11111222,99999999' 
TABS,ioos:station:wmo:42051:1,2003-05-01T22:30:00Z,29.6350,-93.6417,2.0,156.1059878,5.08587259,-99999.0,'11133222,11111222,99999999' 
TABS,ioos:station:wmo:42051:1,2003-05-01T23:00:00Z,29.6350,-93.6417,2.0,193.502925,5.995740154,-99999.0,'11133222,11111222,99999999' 
TABS,ioos:station:wmo:42051:1,2003-05-01T23:30:00Z,29.6350,-93.6417,2.0,109.1762889,8.798192996,-99999.0,'11133222,11111222,99999999' 
TABS,ioos:station:wmo:42051:1,2003-05-02T00:00:00Z,29.6350,-93.6417,2.0,155.4493946,4.452527372,-99999.0,'11133222,11111222,99999999' 
TABS,ioos:station:wmo:42051:1,2003-05-02T00:30:00Z,29.6350,-93.6417,2.0,239.5811186,4.325390156,-99999.0,'11133222,11111222,99999999' 
TABS,ioos:station:wmo:42051:1,2003-05-02T01:00:00Z,29.6350,-93.6417,2.0,334.9833755,0.496588361,-99999.0,'11133222,11111222,99999999' 
TABS,ioos:station:wmo:42051:1,2003-05-02T01:30:00Z,29.6350,-93.6417,2.0,1.569561594,2.190821764,-99999.0,'11133222,11111222,99999999' 
TABS,ioos:station:wmo:42051:1,2003-05-02T02:00:00Z,29.6350,-93.6417,2.0,40.29560329,5.690166957,-99999.0,'11133222,11111222,99999999' 
TABS,ioos:station:wmo:42051:1,2003-05-02T02:30:00Z,29.6350,-93.6417,2.0,343.7263792,1.677200048,-99999.0,'11133222,11111222,99999999' 
TABS,ioos:station:wmo:42051:1,2003-05-02T03:00:00Z,29.6350,-93.6417,2.0,293.9423251,2.833831329,-99999.0,'11133222,11111222,99999999' 
TABS,ioos:station:wmo:42051:1,2003-05-02T03:30:00Z,29.6350,-93.6417,2.0,331.1386965,3.459739875,-99999.0,'11133222,11111222,99999999' 
TABS,ioos:station:wmo:42051:1,2003-05-02T04:00:00Z,29.6350,-93.6417,2.0,335.0157203,5.350710233,-99999.0,'11133222,11111222,99999999' 
TABS,ioos:station:wmo:42051:1,2003-05-02T04:30:00Z,29.6350,-93.6417,2.0,347.9481123,4.693452887,-99999.0,'11133222,11111222,99999999' 
TABS,ioos:station:wmo:42051:1,2003-05-02T05:00:00Z,29.6350,-93.6417,2.0,16.24932048,4.145600077,-99999.0,'11133222,11111222,99999999' 
TABS,ioos:station:wmo:42051:1,2003-05-02T05:30:00Z,29.6350,-93.6417,2.0,74.97442233,7.444528192,-99999.0,'11133222,11111222,99999999' 
TABS,ioos:station:wmo:42051:1,2003-05-02T06:00:00Z,29.6350,-93.6417,2.0,135.126375,3.203201523,-99999.0,'11133222,11111222,99999999' 
TABS,ioos:station:wmo:42051:1,2003-05-02T06:30:00Z,29.6350,-93.6417,2.0,227.8101234,7.787541332,-99999.0,'11133222,11111222,99999999' 
TABS,ioos:station:wmo:42051:1,2003-05-02T07:00:00Z,29.6350,-93.6417,2.0,260.1752121,10.66641927,-99999.0,'11111222,11111222,99999999' 
TABS,ioos:station:wmo:42051:1,2003-05-02T07:30:00Z,29.6350,-93.6417,2.0,236.5948775,10.02633034,-99999.0,'11111222,11111222,99999999' 
TABS,ioos:station:wmo:42051:1,2003-05-02T08:00:00Z,29.6350,-93.6417,2.0,234.0372755,9.723219631,-99999.0,'11133222,11111222,99999999' 
TABS,ioos:station:wmo:42051:1,2003-05-02T08:30:00Z,29.6350,-93.6417,2.0,252.8436373,9.492360086,-99999.0,'11133222,11111222,99999999' 
TABS,ioos:station:wmo:42051:1,2003-05-02T09:00:00Z,29.6350,-93.6417,2.0,217.4399583,8.438418098,-99999.0,'11133222,11111222,99999999' 
TABS,ioos:station:wmo:42051:1,2003-05-02T09:30:00Z,29.6350,-93.6417,2.0,221.6044728,11.58152408,-99999.0,'11111222,11111222,99999999' 
TABS,ioos:station:wmo:42051:1,2003-05-02T10:00:00Z,29.6350,-93.6417,2.0,228.3474253,7.628558186,-99999.0,'11133222,11111222,99999999' 
TABS,ioos:station:wmo:42051:1,2003-05-02T10:30:00Z,29.6350,-93.6417,2.0,186.8010885,9.87952428,-99999.0,'11133222,11111222,99999999' 
TABS,ioos:station:wmo:42051:1,2003-05-02T11:00:00Z,29.6350,-93.6417,2.0,192.8279631,9.54832446,-99999.0,'11133222,11111222,99999999' 
TABS,ioos:station:wmo:42051:1,2003-05-02T11:30:00Z,29.6350,-93.6417,2.0,130.4184851,6.462391198,-99999.0,'11133222,11111222,99999999' 
TABS,ioos:station:wmo:42051:1,2003-05-02T12:00:00Z,29.6350,-93.6417,2.0,141.8323883,12.54121605,-99999.0,'11111222,11111222,99999999' 
TABS,ioos:station:wmo:42051:1,2003-05-02T12:30:00Z,29.6350,-93.6417,2.0,144.1622204,8.437369258,-99999.0,'11133222,11111222,99999999' 
TABS,ioos:station:wmo:42051:1,2003-05-02T13:00:00Z,29.6350,-93.6417,2.0,154.8052483,9.349438486,-99999.0,'11133222,11111222,99999999' 
TABS,ioos:station:wmo:42051:1,2003-05-02T13:30:00Z,29.6350,-93.6417,2.0,148.4650714,5.1623638,-99999.0,'11133222,11111222,99999999' 
TABS,ioos:station:wmo:42051:1,2003-05-02T14:00:00Z,29.6350,-93.6417,2.0,151.380346,10.10457817,-99999.0,'11111222,11111222,99999999' 
TABS,ioos:station:wmo:42051:1,2003-05-02T14:30:00Z,29.6350,-93.6417,2.0,193.2034245,8.011797551,-99999.0,'11133222,11111222,99999999' 
TABS,ioos:station:wmo:42051:1,2003-05-02T15:00:00Z,29.6350,-93.6417,2.0,197.2412086,5.161956993,-99999.0,'11133222,11111222,99999999' 
TABS,ioos:station:wmo:42051:1,2003-05-02T15:30:00Z,29.6350,-93.6417,2.0,152.6015598,10.14834962,-99999.0,'11111222,11111222,99999999' 
TABS,ioos:station:wmo:42051:1,2003-05-02T16:00:00Z,29.6350,-93.6417,2.0,174.8134574,6.416268386,-99999.0,'11133222,11111222,99999999' 
TABS,ioos:station:wmo:42051:1,2003-05-02T16:30:00Z,29.6350,-93.6417,2.0,138.2051032,8.852683209,-99999.0,'11133222,11111222,99999999' 
TABS,ioos:station:wmo:42051:1,2003-05-02T17:00:00Z,29.6350,-93.6417,2.0,167.153367,7.825886531,-99999.0,'11133222,11111222,99999999' 
TABS,ioos:station:wmo:42051:1,2003-05-02T17:30:00Z,29.6350,-93.6417,2.0,186.8647503,12.2981706,-99999.0,'11111222,11111222,99999999' 
TABS,ioos:station:wmo:42051:1,2003-05-02T18:00:00Z,29.6350,-93.6417,2.0,163.9756354,13.98331863,-99999.0,'11111222,11111222,99999999' 
TABS,ioos:station:wmo:42051:1,2003-05-02T18:30:00Z,29.6350,-93.6417,2.0,165.0830235,15.15056435,-99999.0,'11111222,11111222,99999999' 
TABS,ioos:station:wmo:42051:1,2003-05-02T19:00:00Z,29.6350,-93.6417,2.0,188.7261704,19.8396623,-99999.0,'11111222,11111222,99999999' 
TABS,ioos:station:wmo:42051:1,2003-05-02T19:30:00Z,29.6350,-93.6417,2.0,186.10958,17.85140051,-99999.0,'11111222,11111222,99999999' 
TABS,ioos:station:wmo:42051:1,2003-05-02T20:00:00Z,29.6350,-93.6417,2.0,179.9997895,17.16,-99999.0,'11111222,11111222,99999999' 
TABS,ioos:station:wmo:42051:1,2003-05-02T20:30:00Z,29.6350,-93.6417,2.0,179.7578914,16.58014777,-99999.0,'11111222,11111222,99999999' 
TABS,ioos:station:wmo:42051:1,2003-05-02T21:00:00Z,29.6350,-93.6417,2.0,190.7140235,13.39349469,-99999.0,'11111222,11111222,99999999' 
TABS,ioos:station:wmo:42051:1,2003-05-02T21:30:00Z,29.6350,-93.6417,2.0,186.0901778,16.21150209,-99999.0,'11111222,11111222,99999999' 
TABS,ioos:station:wmo:42051:1,2003-05-02T22:00:00Z,29.6350,-93.6417,2.0,182.8347979,12.53534204,-99999.0,'11111222,11111222,99999999' 
TABS,ioos:station:wmo:42051:1,2003-05-02T22:30:00Z,29.6350,-93.6417,2.0,201.3236954,12.92484429,-99999.0,'11111222,11111222,99999999' 
TABS,ioos:station:wmo:42051:1,2003-05-02T23:00:00Z,29.6350,-93.6417,2.0,189.1953899,20.83779739,-99999.0,'11111222,11111222,99999999' 
TABS,ioos:station:wmo:42051:1,2003-05-02T23:30:00Z,29.6350,-93.6417,2.0,212.6773401,15.5395785,-99999.0,'11111222,11111222,99999999' 
TABS,ioos:station:wmo:42051:1,2003-05-03T00:00:00Z,29.6350,-93.6417,2.0,220.4154384,18.75590574,-99999.0,'11111222,11111222,99999999' 
TABS,ioos:station:wmo:42051:1,2003-05-03T00:30:00Z,29.6350,-93.6417,2.0,342.796789,7.945476701,-99999.0,'11133222,11111222,99999999' 
TABS,ioos:station:wmo:42051:1,2003-05-03T01:00:00Z,29.6350,-93.6417,2.0,55.44042492,10.96491222,-99999.0,'11111222,11111222,99999999' 
TABS,ioos:station:wmo:42051:1,2003-05-03T01:30:00Z,29.6350,-93.6417,2.0,81.65612793,15.91849867,-99999.0,'11111222,11111222,99999999' 
TABS,ioos:station:wmo:42051:1,2003-05-03T02:00:00Z,29.6350,-93.6417,2.0,74.74126361,27.50980189,-99999.0,'11111222,11111222,99999999' 
TABS,ioos:station:wmo:42051:1,2003-05-03T02:30:00Z,29.6350,-93.6417,2.0,97.5542671,14.07213559,-99999.0,'11111222,11111222,99999999' 
TABS,ioos:station:wmo:42051:1,2003-05-03T03:00:00Z,29.6350,-93.6417,2.0,86.72669185,11.55885808,-99999.0,'11111222,11111222,99999999' 
TABS,ioos:station:wmo:42051:1,2003-05-03T03:30:00Z,29.6350,-93.6417,2.0,91.72095009,17.64796022,-99999.0,'11111222,11111222,99999999' 
TABS,ioos:station:wmo:42051:1,2003-05-03T04:00:00Z,29.6350,-93.6417,2.0,85.17580554,21.99792945,-99999.0,'11111222,11111222,99999999' 
TABS,ioos:station:wmo:42051:1,2003-05-03T04:30:00Z,29.6350,-93.6417,2.0,75.36175569,9.69468411,-99999.0,'11133222,11111222,99999999' 
TABS,ioos:station:wmo:42051:1,2003-05-03T05:00:00Z,29.6350,-93.6417,2.0,75.36012194,15.19327483,-99999.0,'11111222,11111222,99999999' 
TABS,ioos:station:wmo:42051:1,2003-05-03T05:30:00Z,29.6350,-93.6417,2.0,100.4584411,12.00951706,-99999.0,'11111222,11111222,99999999' 
TABS,ioos:station:wmo:42051:1,2003-05-03T06:00:00Z,29.6350,-93.6417,2.0,35.7718373,6.261150054,-99999.0,'11133222,11111222,99999999' 
TABS,ioos:station:wmo:42051:1,2003-05-03T06:30:00Z,29.6350,-93.6417,2.0,68.67352929,12.09846685,-99999.0,'11111222,11111222,99999999' 
TABS,ioos:station:wmo:42051:1,2003-05-03T07:00:00Z,29.6350,-93.6417,2.0,5.87538945,7.620026247,-99999.0,'11133222,11111222,99999999' 
TABS,ioos:station:wmo:42051:1,2003-05-03T07:30:00Z,29.6350,-93.6417,2.0,12.16013788,8.592793492,-99999.0,'11133222,11111222,99999999' 
TABS,ioos:station:wmo:42051:1,2003-05-03T08:00:00Z,29.6350,-93.6417,2.0,38.55103405,15.61271917,-99999.0,'11111222,11111222,99999999' 
TABS,ioos:station:wmo:42051:1,2003-05-03T08:30:00Z,29.6350,-93.6417,2.0,30.00634602,16.31693905,-99999.0,'11111222,11111222,99999999' 
TABS,ioos:station:wmo:42051:1,2003-05-03T09:00:00Z,29.6350,-93.6417,2.0,47.95422873,17.4250538,-99999.0,'11111222,11111222,99999999' 
TABS,ioos:station:wmo:42051:1,2003-05-03T09:30:00Z,29.6350,-93.6417,2.0,29.20378389,11.9487991,-99999.0,'11111222,11111222,99999999' 
TABS,ioos:station:wmo:42051:1,2003-05-03T10:00:00Z,29.6350,-93.6417,2.0,30.00360814,9.618991631,-99999.0,'11133222,11111222,99999999' 
TABS,ioos:station:wmo:42051:1,2003-05-03T10:30:00Z,29.6350,-93.6417,2.0,28.75637649,6.901079626,-99999.0,'11133222,11111222,99999999' 
TABS,ioos:station:wmo:42051:1,2003-05-03T11:00:00Z,29.6350,-93.6417,2.0,49.80113933,15.29180499,-99999.0,'11111222,11111222,99999999' 
TABS,ioos:station:wmo:42051:1,2003-05-03T11:30:00Z,29.6350,-93.6417,2.0,24.1101433,3.549661956,-99999.0,'11133222,11111222,99999999' 
TABS,ioos:station:wmo:42051:1,2003-05-03T12:00:00Z,29.6350,-93.6417,2.0,75.03444312,9.719681065,-99999.0,'11133222,11111222,99999999' 
TABS,ioos:station:wmo:42051:1,2003-05-03T12:30:00Z,29.6350,-93.6417,2.0,92.82840915,10.9433313,-99999.0,'11111222,11111222,99999999' 
TABS,ioos:station:wmo:42051:1,2003-05-03T13:00:00Z,29.6350,-93.6417,2.0,88.8265103,10.74225302,-99999.0,'11111222,11111222,99999999' 
TABS,ioos:station:wmo:42051:1,2003-05-03T13:30:00Z,29.6350,-93.6417,2.0,106.183416,9.256808305,-99999.0,'11133222,11111222,99999999' 
TABS,ioos:station:wmo:42051:1,2003-05-03T14:00:00Z,29.6350,-93.6417,2.0,110.2632435,10.30794839,-99999.0,'11111222,11111222,99999999' 
TABS,ioos:station:wmo:42051:1,2003-05-03T14:30:00Z,29.6350,-93.6417,2.0,105.3493479,14.39341863,-99999.0,'11111222,11111222,99999999' 
TABS,ioos:station:wmo:42051:1,2003-05-03T15:00:00Z,29.6350,-93.6417,2.0,98.59851771,10.03276632,-99999.0,'11111222,11111222,99999999' 
TABS,ioos:station:wmo:42051:1,2003-05-03T15:30:00Z,29.6350,-93.6417,2.0,110.687357,14.80457362,-99999.0,'11111222,11111222,99999999' 
TABS,ioos:station:wmo:42051:1,2003-05-03T16:00:00Z,29.6350,-93.6417,2.0,142.9701449,12.18804742,-99999.0,'11111222,11111222,99999999' 
TABS,ioos:station:wmo:42051:1,2003-05-03T16:30:00Z,29.6350,-93.6417,2.0,116.8885756,12.66976322,-99999.0,'11111222,11111222,99999999' 
TABS,ioos:station:wmo:42051:1,2003-05-03T17:00:00Z,29.6350,-93.6417,2.0,137.0436025,17.0521201,-99999.0,'11111222,11111222,99999999' 
TABS,ioos:station:wmo:42051:1,2003-05-03T17:30:00Z,29.6350,-93.6417,2.0,150.1374618,10.8853112,-99999.0,'11111222,11111222,99999999' 
TABS,ioos:station:wmo:42051:1,2003-05-03T18:00:00Z,29.6350,-93.6417,2.0,134.6883545,14.30498165,-99999.0,'11111222,11111222,99999999' 
TABS,ioos:station:wmo:42051:1,2003-05-03T18:30:00Z,29.6350,-93.6417,2.0,152.6590482,13.54286897,-99999.0,'11111222,11111222,99999999' 
TABS,ioos:station:wmo:42051:1,2003-05-03T19:00:00Z,29.6350,-93.6417,2.0,126.8491743,16.65800108,-99999.0,'11111222,11111222,99999999' 
TABS,ioos:station:wmo:42051:1,2003-05-03T19:30:00Z,29.6350,-93.6417,2.0,150.0395993,15.17823771,-99999.0,'11111222,11111222,99999999' 
TABS,ioos:station:wmo:42051:1,2003-05-03T20:00:00Z,29.6350,-93.6417,2.0,139.9133966,12.79615958,-99999.0,'11111222,11111222,99999999' 
TABS,ioos:station:wmo:42051:1,2003-05-03T20:30:00Z,29.6350,-93.6417,2.0,119.9947945,18.76291289,-99999.0,'11111222,11111222,99999999' 
TABS,ioos:station:wmo:42051:1,2003-05-03T21:00:00Z,29.6350,-93.6417,2.0,163.6914335,14.74320521,-99999.0,'11111222,11111222,99999999' 
TABS,ioos:station:wmo:42051:1,2003-05-03T21:30:00Z,29.6350,-93.6417,2.0,122.9751706,8.892536196,-99999.0,'11133222,11111222,99999999' 
TABS,ioos:station:wmo:42051:1,2003-05-03T22:00:00Z,29.6350,-93.6417,2.0,157.3735304,6.836153889,-99999.0,'11133222,11111222,99999999' 
TABS,ioos:station:wmo:42051:1,2003-05-03T22:30:00Z,29.6350,-93.6417,2.0,132.1657904,4.290314674,-99999.0,'11133222,11111222,99999999' 
TABS,ioos:station:wmo:42051:1,2003-05-03T23:00:00Z,29.6350,-93.6417,2.0,72.00079422,8.31703072,-99999.0,'11133222,11111222,99999999' 
TABS,ioos:station:wmo:42051:1,2003-05-03T23:30:00Z,29.6350,-93.6417,2.0,43.31281445,9.125634225,-99999.0,'11133222,11111222,99999999' 
TABS,ioos:station:wmo:42051:1,2003-05-04T00:00:00Z,29.6350,-93.6417,2.0,31.17050767,6.182564193,-99999.0,'11133222,11111222,99999999' 
TABS,ioos:station:wmo:42051:1,2003-05-04T00:30:00Z,29.6350,-93.6417,2.0,45.24600778,8.23786987,-99999.0,'11133222,11111222,99999999' 
TABS,ioos:station:wmo:42051:1,2003-05-04T01:00:00Z,29.6350,-93.6417,2.0,64.75455711,8.933224502,-99999.0,'11133222,11111222,99999999' 
TABS,ioos:station:wmo:42051:1,2003-05-04T01:30:00Z,29.6350,-93.6417,2.0,43.79087803,10.72212665,-99999.0,'11111222,11111222,99999999' 
TABS,ioos:station:wmo:42051:1,2003-05-04T02:00:00Z,29.6350,-93.6417,2.0,50.23509006,5.424923963,-99999.0,'11133222,11111222,99999999' 
TABS,ioos:station:wmo:42051:1,2003-05-04T02:30:00Z,29.6350,-93.6417,2.0,41.23026028,3.656583104,-99999.0,'11133222,11111222,99999999' 
TABS,ioos:station:wmo:42051:1,2003-05-04T03:00:00Z,29.6350,-93.6417,2.0,311.962987,5.20454609,-99999.0,'11133222,11111222,99999999' 
TABS,ioos:station:wmo:42051:1,2003-05-04T03:30:00Z,29.6350,-93.6417,2.0,301.0896981,3.911892125,-99999.0,'11133222,11111222,99999999' 
TABS,ioos:station:wmo:42051:1,2003-05-04T04:00:00Z,29.6350,-93.6417,2.0,332.3208578,5.058942577,-99999.0,'11133222,11111222,99999999' 
TABS,ioos:station:wmo:42051:1,2003-05-04T04:30:00Z,29.6350,-93.6417,2.0,298.0498734,5.869412236,-99999.0,'11133222,11111222,99999999' 
TABS,ioos:station:wmo:42051:1,2003-05-04T05:00:00Z,29.6350,-93.6417,2.0,324.12945,6.99706367,-99999.0,'11133222,11111222,99999999' 
TABS,ioos:station:wmo:42051:1,2003-05-04T05:30:00Z,29.6350,-93.6417,2.0,304.7257604,5.986192446,-99999.0,'11133222,11111222,99999999' 
TABS,ioos:station:wmo:42051:1,2003-05-04T06:00:00Z,29.6350,-93.6417,2.0,343.8797295,10.33643072,-99999.0,'11111222,11111222,99999999' 
TABS,ioos:station:wmo:42051:1,2003-05-04T06:30:00Z,29.6350,-93.6417,2.0,342.2416132,9.376806493,-99999.0,'11133222,11111222,99999999' 
TABS,ioos:station:wmo:42051:1,2003-05-04T07:00:00Z,29.6350,-93.6417,2.0,353.6468226,9.578830826,-99999.0,'11133222,11111222,99999999' 
TABS,ioos:station:wmo:42051:1,2003-05-04T07:30:00Z,29.6350,-93.6417,2.0,11.71475218,13.05185427,-99999.0,'11111222,11111222,99999999' 
TABS,ioos:station:wmo:42051:1,2003-05-04T08:00:00Z,29.6350,-93.6417,2.0,18.88625366,3.2129737,-99999.0,'11133222,11111222,99999999' 
TABS,ioos:station:wmo:42051:1,2003-05-04T08:30:00Z,29.6350,-93.6417,2.0,334.2346436,4.808014143,-99999.0,'11133222,11111222,99999999' 
TABS,ioos:station:wmo:42051:1,2003-05-04T09:00:00Z,29.6350,-93.6417,2.0,323.4565091,4.568073992,-99999.0,'11133222,11111222,99999999' 
TABS,ioos:station:wmo:42051:1,2003-05-04T09:30:00Z,29.6350,-93.6417,2.0,99.94696468,48.97621055,-99999.0,'11111222,11111222,99999999' 
TABS,ioos:station:wmo:42051:1,2003-05-04T10:00:00Z,29.6350,-93.6417,2.0,71.25183088,112.7843185,-99999.0,'11111222,11111222,99999999' 
TABS,ioos:station:wmo:42051:1,2003-05-04T10:30:00Z,29.6350,-93.6417,2.0,266.0655079,120.6843751,-99999.0,'11111222,11111222,99999999' 
TABS,ioos:station:wmo:42051:1,2003-05-04T11:00:00Z,29.6350,-93.6417,2.0,257.83065,122.9629473,-99999.0,'11111222,11111222,99999999' 
TABS,ioos:station:wmo:42051:1,2003-05-04T11:30:00Z,29.6350,-93.6417,2.0,260.326893,119.0930733,-99999.0,'11111222,11111222,99999999' 
TABS,ioos:station:wmo:42051:1,2003-05-04T12:00:00Z,29.6350,-93.6417,2.0,182.3214458,117.9968576,-99999.0,'11111222,11111222,99999999' 
TABS,ioos:station:wmo:42051:1,2003-05-04T12:30:00Z,29.6350,-93.6417,2.0,196.2668965,19.81320015,-99999.0,'11111222,11111222,99999999' 
TABS,ioos:station:wmo:42051:1,2003-05-04T13:00:00Z,29.6350,-93.6417,2.0,143.8902972,2.562225595,-99999.0,'11133222,11111222,99999999' 
TABS,ioos:station:wmo:42051:1,2003-05-04T13:30:00Z,29.6350,-93.6417,2.0,133.1621623,5.291880573,-99999.0,'11133222,11111222,99999999' 
TABS,ioos:station:wmo:42051:1,2003-05-04T14:00:00Z,29.6350,-93.6417,2.0,123.7810787,3.489068644,-99999.0,'11133222,11111222,99999999' 
TABS,ioos:station:wmo:42051:1,2003-05-04T14:30:00Z,29.6350,-93.6417,2.0,136.2114046,7.023140323,-99999.0,'11133222,11111222,99999999' 
TABS,ioos:station:wmo:42051:1,2003-05-04T15:00:00Z,29.6350,-93.6417,2.0,152.1611154,8.651248465,-99999.0,'11133222,11111222,99999999' 
TABS,ioos:station:wmo:42051:1,2003-05-04T15:30:00Z,29.6350,-93.6417,2.0,68.39345027,4.915384013,-99999.0,'11133222,11111222,99999999' 
TABS,ioos:station:wmo:42051:1,2003-05-04T16:00:00Z,29.6350,-93.6417,2.0,94.721961,5.70937825,-99999.0,'11133222,11111222,99999999' 
TABS,ioos:station:wmo:42051:1,2003-05-04T16:30:00Z,29.6350,-93.6417,2.0,80.51552668,4.24807015,-99999.0,'11133222,11111222,99999999' 
TABS,ioos:station:wmo:42051:1,2003-05-04T17:00:00Z,29.6350,-93.6417,2.0,70.89039756,6.445168733,-99999.0,'11133222,11111222,99999999' 
TABS,ioos:station:wmo:42051:1,2003-05-04T17:30:00Z,29.6350,-93.6417,2.0,78.51652978,5.826637109,-99999.0,'11133222,11111222,99999999' 
TABS,ioos:station:wmo:42051:1,2003-05-04T18:00:00Z,29.6350,-93.6417,2.0,85.60878185,5.87725276,-99999.0,'11133222,11111222,99999999' 
TABS,ioos:station:wmo:42051:1,2003-05-04T18:30:00Z,29.6350,-93.6417,2.0,70.86310925,6.710856875,-99999.0,'11133222,11111222,99999999' 
TABS,ioos:station:wmo:42051:1,2003-05-04T19:00:00Z,29.6350,-93.6417,2.0,81.73944861,8.07376616,-99999.0,'11133222,11111222,99999999' 
TABS,ioos:station:wmo:42051:1,2003-05-04T19:30:00Z,29.6350,-93.6417,2.0,97.23346268,5.241717276,-99999.0,'11133222,11111222,99999999' 
TABS,ioos:station:wmo:42051:1,2003-05-04T20:00:00Z,29.6350,-93.6417,2.0,98.93056922,4.251540897,-99999.0,'11133222,11111222,99999999' 
TABS,ioos:station:wmo:42051:1,2003-05-04T20:30:00Z,29.6350,-93.6417,2.0,117.6459107,4.504242445,-99999.0,'11133222,11111222,99999999' 
TABS,ioos:station:wmo:42051:1,2003-05-04T21:00:00Z,29.6350,-93.6417,2.0,148.987426,2.018539076,-99999.0,'11133222,11111222,99999999' 
TABS,ioos:station:wmo:42051:1,2003-05-04T21:30:00Z,29.6350,-93.6417,2.0,121.5347182,2.5811819,-99999.0,'11133222,11111222,99999999' 
TABS,ioos:station:wmo:42051:1,2003-05-04T22:00:00Z,29.6350,-93.6417,2.0,162.8239261,1.727020556,-99999.0,'11133222,11111222,99999999' 
TABS,ioos:station:wmo:42051:1,2003-05-04T22:30:00Z,29.6350,-93.6417,2.0,91.45635523,4.721525177,-99999.0,'11133222,11111222,99999999' 
TABS,ioos:station:wmo:42051:1,2003-05-04T23:00:00Z,29.6350,-93.6417,2.0,160.8661911,3.630564694,-99999.0,'11133222,11111222,99999999' 
TABS,ioos:station:wmo:42051:1,2003-05-04T23:30:00Z,29.6350,-93.6417,2.0,157.8592895,5.333263541,-99999.0,'11133222,11111222,99999999' 
TABS,ioos:station:wmo:42051:1,2003-05-05T00:00:00Z,29.6350,-93.6417,2.0,182.439889,3.523194573,-99999.0,'11133222,11111222,99999999' 
TABS,ioos:station:wmo:42051:1,2003-05-05T00:30:00Z,29.6350,-93.6417,2.0,196.1299225,5.111213163,-99999.0,'11133222,11111222,99999999' 
TABS,ioos:station:wmo:42051:1,2003-05-05T01:00:00Z,29.6350,-93.6417,2.0,210.256156,3.334186557,-99999.0,'11133222,11111222,99999999' 
TABS,ioos:station:wmo:42051:1,2003-05-05T01:30:00Z,29.6350,-93.6417,2.0,171.0785087,6.964251575,-99999.0,'11133222,11111222,99999999' 
TABS,ioos:station:wmo:42051:1,2003-05-05T02:00:00Z,29.6350,-93.6417,2.0,185.2861145,2.822002835,-99999.0,'11133222,11111222,99999999' 
TABS,ioos:station:wmo:42051:1,2003-05-05T02:30:00Z,29.6350,-93.6417,2.0,138.6891143,6.044145928,-99999.0,'11133222,11111222,99999999' 
TABS,ioos:station:wmo:42051:1,2003-05-05T03:00:00Z,29.6350,-93.6417,2.0,185.1048681,3.483819743,-99999.0,'11133222,11111222,99999999' 
TABS,ioos:station:wmo:42051:1,2003-05-05T03:30:00Z,29.6350,-93.6417,2.0,304.3597209,2.374278838,-99999.0,'11133222,11111222,99999999' 
TABS,ioos:station:wmo:42051:1,2003-05-05T04:00:00Z,29.6350,-93.6417,2.0,188.5137576,6.75443558,-99999.0,'11133222,11111222,99999999' 
TABS,ioos:station:wmo:42051:1,2003-05-05T04:30:00Z,29.6350,-93.6417,2.0,187.5235924,0.534602656,-99999.0,'11133222,11111222,99999999' 
TABS,ioos:station:wmo:42051:1,2003-05-05T05:00:00Z,29.6350,-93.6417,2.0,141.3400717,0.576281181,-99999.0,'11133222,11111222,99999999' 
TABS,ioos:station:wmo:42051:1,2003-05-05T05:30:00Z,29.6350,-93.6417,2.0,276.4592222,1.600156242,-99999.0,'11133222,11111222,99999999' 
TABS,ioos:station:wmo:42051:1,2003-05-05T06:00:00Z,29.6350,-93.6417,2.0,270.0004209,1.67,-99999.0,'11133222,11111222,99999999' 
TABS,ioos:station:wmo:42051:1,2003-05-05T06:30:00Z,29.6350,-93.6417,2.0,227.7871586,1.890211628,-99999.0,'11133222,11111222,99999999' 
TABS,ioos:station:wmo:42051:1,2003-05-05T07:00:00Z,29.6350,-93.6417,2.0,270.7542675,1.520131573,-99999.0,'11133222,11111222,99999999' 
TABS,ioos:station:wmo:42051:1,2003-05-05T07:30:00Z,29.6350,-93.6417,2.0,158.3992914,2.118796828,-99999.0,'11133222,11111222,99999999' 
TABS,ioos:station:wmo:42051:1,2003-05-05T08:00:00Z,29.6350,-93.6417,2.0,209.8322539,4.864647983,-99999.0,'11133222,11111222,99999999' 